Year,Month,Day,Hour,Minute,Value (Times are PST for temperature in C)
2014,11,28,00,00,10.90
2014,11,28,00,01,10.90
2014,11,28,00,02,10.90
2014,11,28,00,03,10.90
2014,11,28,00,04,10.90
2014,11,28,00,05,10.90
2014,11,28,00,06,10.90
2014,11,28,00,07,10.90
2014,11,28,00,08,10.90
2014,11,28,00,09,10.90
2014,11,28,00,10,10.90
2014,11,28,00,11,10.80
2014,11,28,00,12,10.80
2014,11,28,00,13,10.80
2014,11,28,00,14,10.80
2014,11,28,00,15,10.80
2014,11,28,00,16,10.80
2014,11,28,00,17,10.80
2014,11,28,00,18,10.80
2014,11,28,00,19,10.80
2014,11,28,00,20,10.80
2014,11,28,00,21,10.80
2014,11,28,00,22,10.80
2014,11,28,00,23,10.80
2014,11,28,00,24,10.80
2014,11,28,00,25,10.70
2014,11,28,00,26,10.80
2014,11,28,00,27,10.70
2014,11,28,00,28,10.70
2014,11,28,00,29,10.70
2014,11,28,00,30,10.70
2014,11,28,00,31,10.70
2014,11,28,00,32,10.70
2014,11,28,00,33,10.70
2014,11,28,00,34,10.70
2014,11,28,00,35,10.70
2014,11,28,00,36,10.70
2014,11,28,00,37,10.70
2014,11,28,00,38,10.70
2014,11,28,00,39,10.70
2014,11,28,00,40,10.70
2014,11,28,00,41,10.70
2014,11,28,00,42,10.70
2014,11,28,00,43,10.70
2014,11,28,00,44,10.70
2014,11,28,00,45,10.70
2014,11,28,00,46,10.70
2014,11,28,00,47,10.70
2014,11,28,00,48,10.70
2014,11,28,00,49,10.70
2014,11,28,00,50,10.70
2014,11,28,00,51,10.70
2014,11,28,00,52,10.70
2014,11,28,00,53,10.70
2014,11,28,00,54,10.70
2014,11,28,00,55,10.70
2014,11,28,00,56,10.70
2014,11,28,00,57,10.70
2014,11,28,00,58,10.70
2014,11,28,00,59,10.70
2014,11,28,01,00,10.70
2014,11,28,01,01,10.70
2014,11,28,01,02,10.70
2014,11,28,01,03,10.70
2014,11,28,01,04,10.70
2014,11,28,01,05,10.70
2014,11,28,01,06,10.70
2014,11,28,01,07,10.70
2014,11,28,01,08,10.70
2014,11,28,01,09,10.70
2014,11,28,01,10,10.70
2014,11,28,01,11,10.70
2014,11,28,01,12,10.70
2014,11,28,01,13,10.70
2014,11,28,01,14,10.70
2014,11,28,01,15,10.70
2014,11,28,01,16,10.70
2014,11,28,01,17,10.70
2014,11,28,01,18,10.70
2014,11,28,01,19,10.70
2014,11,28,01,20,10.70
2014,11,28,01,21,10.70
2014,11,28,01,22,10.70
2014,11,28,01,23,10.70
2014,11,28,01,24,10.70
2014,11,28,01,25,10.70
2014,11,28,01,26,10.70
2014,11,28,01,27,10.70
2014,11,28,01,28,10.70
2014,11,28,01,29,10.70
2014,11,28,01,30,10.70
2014,11,28,01,31,10.70
2014,11,28,01,32,10.70
2014,11,28,01,33,10.70
2014,11,28,01,34,10.70
2014,11,28,01,35,10.70
2014,11,28,01,36,10.70
2014,11,28,01,37,10.70
2014,11,28,01,38,10.70
2014,11,28,01,39,10.70
2014,11,28,01,40,10.70
2014,11,28,01,41,10.70
2014,11,28,01,42,10.70
2014,11,28,01,43,10.70
2014,11,28,01,44,10.70
2014,11,28,01,45,10.60
2014,11,28,01,46,10.60
2014,11,28,01,47,10.60
2014,11,28,01,48,10.60
2014,11,28,01,49,10.60
2014,11,28,01,50,10.60
2014,11,28,01,51,10.60
2014,11,28,01,52,10.60
2014,11,28,01,53,10.60
2014,11,28,01,54,10.60
2014,11,28,01,55,10.60
2014,11,28,01,56,10.60
2014,11,28,01,57,10.60
2014,11,28,01,58,10.60
2014,11,28,01,59,10.60
2014,11,28,02,00,10.60
2014,11,28,02,01,10.60
2014,11,28,02,02,10.60
2014,11,28,02,03,10.60
2014,11,28,02,04,10.60
2014,11,28,02,05,10.60
2014,11,28,02,06,10.60
2014,11,28,02,07,10.60
2014,11,28,02,08,10.70
2014,11,28,02,09,10.70
2014,11,28,02,10,10.70
2014,11,28,02,11,10.70
2014,11,28,02,12,10.70
2014,11,28,02,13,10.70
2014,11,28,02,14,10.70
2014,11,28,02,15,10.70
2014,11,28,02,16,10.70
2014,11,28,02,17,10.70
2014,11,28,02,18,10.70
2014,11,28,02,19,10.70
2014,11,28,02,20,10.70
2014,11,28,02,21,10.70
2014,11,28,02,22,10.70
2014,11,28,02,23,10.70
2014,11,28,02,24,10.70
2014,11,28,02,25,10.70
2014,11,28,02,26,10.70
2014,11,28,02,27,10.70
2014,11,28,02,28,10.70
2014,11,28,02,29,10.70
2014,11,28,02,30,10.70
2014,11,28,02,31,10.70
2014,11,28,02,32,10.70
2014,11,28,02,33,10.70
2014,11,28,02,34,10.70
2014,11,28,02,35,10.70
2014,11,28,02,36,10.70
2014,11,28,02,37,10.70
2014,11,28,02,38,10.70
2014,11,28,02,39,10.60
2014,11,28,02,40,10.60
2014,11,28,02,41,10.60
2014,11,28,02,42,10.60
2014,11,28,02,43,10.60
2014,11,28,02,44,10.60
2014,11,28,02,45,10.60
2014,11,28,02,46,10.60
2014,11,28,02,47,10.60
2014,11,28,02,48,10.60
2014,11,28,02,49,10.60
2014,11,28,02,50,10.50
2014,11,28,02,51,10.50
2014,11,28,02,52,10.50
2014,11,28,02,53,10.40
2014,11,28,02,54,10.40
2014,11,28,02,55,10.40
2014,11,28,02,56,10.40
2014,11,28,02,57,10.40
2014,11,28,02,58,10.40
2014,11,28,02,59,10.40
2014,11,28,03,00,10.40
2014,11,28,03,01,10.40
2014,11,28,03,02,10.30
2014,11,28,03,03,10.30
2014,11,28,03,04,10.30
2014,11,28,03,05,10.30
2014,11,28,03,06,10.30
2014,11,28,03,07,10.30
2014,11,28,03,08,10.30
2014,11,28,03,09,10.20
2014,11,28,03,10,10.20
2014,11,28,03,11,10.20
2014,11,28,03,12,10.20
2014,11,28,03,13,10.20
2014,11,28,03,14,10.20
2014,11,28,03,15,10.20
2014,11,28,03,16,10.20
2014,11,28,03,17,10.20
2014,11,28,03,18,10.20
2014,11,28,03,19,10.20
2014,11,28,03,20,10.20
2014,11,28,03,21,10.10
2014,11,28,03,22,10.10
2014,11,28,03,23,10.10
2014,11,28,03,24,10.10
2014,11,28,03,25,10.00
2014,11,28,03,26,10.00
2014,11,28,03,27,10.00
2014,11,28,03,28,10.00
2014,11,28,03,29,9.90
2014,11,28,03,30,9.90
2014,11,28,03,31,9.90
2014,11,28,03,32,9.90
2014,11,28,03,33,9.80
2014,11,28,03,34,9.80
2014,11,28,03,35,9.80
2014,11,28,03,36,9.80
2014,11,28,03,37,9.80
2014,11,28,03,38,9.80
2014,11,28,03,39,9.80
2014,11,28,03,40,9.80
2014,11,28,03,41,9.80
2014,11,28,03,42,9.80
2014,11,28,03,43,9.80
2014,11,28,03,44,9.80
2014,11,28,03,45,9.70
2014,11,28,03,46,9.70
2014,11,28,03,47,9.70
2014,11,28,03,48,9.70
2014,11,28,03,49,9.70
2014,11,28,03,50,9.70
2014,11,28,03,51,9.70
2014,11,28,03,52,9.70
2014,11,28,03,53,9.70
2014,11,28,03,54,9.70
2014,11,28,03,55,9.70
2014,11,28,03,56,9.70
2014,11,28,03,57,9.70
2014,11,28,03,58,9.70
2014,11,28,03,59,9.70
2014,11,28,04,00,9.70
2014,11,28,04,01,9.70
2014,11,28,04,02,9.70
2014,11,28,04,03,9.60
2014,11,28,04,04,9.60
2014,11,28,04,05,9.70
2014,11,28,04,06,9.70
2014,11,28,04,07,9.70
2014,11,28,04,08,9.70
2014,11,28,04,09,9.70
2014,11,28,04,10,9.70
2014,11,28,04,11,9.70
2014,11,28,04,12,9.70
2014,11,28,04,13,9.70
2014,11,28,04,14,9.60
2014,11,28,04,15,9.60
2014,11,28,04,16,9.60
2014,11,28,04,17,9.60
2014,11,28,04,18,9.60
2014,11,28,04,19,9.50
2014,11,28,04,20,9.50
2014,11,28,04,21,9.50
2014,11,28,04,22,9.40
2014,11,28,04,23,9.40
2014,11,28,04,24,9.40
2014,11,28,04,25,9.40
2014,11,28,04,26,9.40
2014,11,28,04,27,9.40
2014,11,28,04,28,9.40
2014,11,28,04,29,9.40
2014,11,28,04,30,9.40
2014,11,28,04,31,9.40
2014,11,28,04,32,9.40
2014,11,28,04,33,9.40
2014,11,28,04,34,9.40
2014,11,28,04,35,9.40
2014,11,28,04,36,9.40
2014,11,28,04,37,9.40
2014,11,28,04,38,9.40
2014,11,28,04,39,9.30
2014,11,28,04,40,9.30
2014,11,28,04,41,9.30
2014,11,28,04,42,9.30
2014,11,28,04,43,9.30
2014,11,28,04,44,9.30
2014,11,28,04,45,9.30
2014,11,28,04,46,9.30
2014,11,28,04,47,9.30
2014,11,28,04,48,9.40
2014,11,28,04,49,9.40
2014,11,28,04,50,9.40
2014,11,28,04,51,9.40
2014,11,28,04,52,9.40
2014,11,28,04,53,9.40
2014,11,28,04,54,9.40
2014,11,28,04,55,9.40
2014,11,28,04,56,9.40
2014,11,28,04,57,9.30
2014,11,28,04,58,9.20
2014,11,28,04,59,9.10
2014,11,28,05,00,9.00
2014,11,28,05,01,8.80
2014,11,28,05,02,8.70
2014,11,28,05,03,8.60
2014,11,28,05,04,8.50
2014,11,28,05,05,8.40
2014,11,28,05,06,8.30
2014,11,28,05,07,8.20
2014,11,28,05,08,8.10
2014,11,28,05,09,8.00
2014,11,28,05,10,7.90
2014,11,28,05,11,7.90
2014,11,28,05,12,7.80
2014,11,28,05,13,7.70
2014,11,28,05,14,7.70
2014,11,28,05,15,7.60
2014,11,28,05,16,7.60
2014,11,28,05,17,7.60
2014,11,28,05,18,7.50
2014,11,28,05,19,7.50
2014,11,28,05,20,7.40
2014,11,28,05,21,7.40
2014,11,28,05,22,7.30
2014,11,28,05,23,7.30
2014,11,28,05,24,7.30
2014,11,28,05,25,7.20
2014,11,28,05,26,7.20
2014,11,28,05,27,7.10
2014,11,28,05,28,7.10
2014,11,28,05,29,7.10
2014,11,28,05,30,7.00
2014,11,28,05,31,7.00
2014,11,28,05,32,6.90
2014,11,28,05,33,6.90
2014,11,28,05,34,6.80
2014,11,28,05,35,6.80
2014,11,28,05,36,6.80
2014,11,28,05,37,6.80
2014,11,28,05,38,6.80
2014,11,28,05,39,6.70
2014,11,28,05,40,6.70
2014,11,28,05,41,6.70
2014,11,28,05,42,6.60
2014,11,28,05,43,6.60
2014,11,28,05,44,6.50
2014,11,28,05,45,6.50
2014,11,28,05,46,6.50
2014,11,28,05,47,6.40
2014,11,28,05,48,6.40
2014,11,28,05,49,6.30
2014,11,28,05,50,6.30
2014,11,28,05,51,6.30
2014,11,28,05,52,6.30
2014,11,28,05,53,6.20
2014,11,28,05,54,6.20
2014,11,28,05,55,6.20
2014,11,28,05,56,6.10
2014,11,28,05,57,6.10
2014,11,28,05,58,6.10
2014,11,28,05,59,6.10
2014,11,28,06,00,6.00
2014,11,28,06,01,6.00
2014,11,28,06,02,6.00
2014,11,28,06,03,5.90
2014,11,28,06,04,5.90
2014,11,28,06,05,5.90
2014,11,28,06,06,5.90
2014,11,28,06,07,5.90
2014,11,28,06,08,5.90
2014,11,28,06,09,5.90
2014,11,28,06,10,5.80
2014,11,28,06,11,5.80
2014,11,28,06,12,5.80
2014,11,28,06,13,5.80
2014,11,28,06,14,5.80
2014,11,28,06,15,5.80
2014,11,28,06,16,5.80
2014,11,28,06,17,5.80
2014,11,28,06,18,5.80
2014,11,28,06,19,5.80
2014,11,28,06,20,5.80
2014,11,28,06,21,5.90
2014,11,28,06,22,5.90
2014,11,28,06,23,5.90
2014,11,28,06,24,5.90
2014,11,28,06,25,5.90
2014,11,28,06,26,5.90
2014,11,28,06,27,5.90
2014,11,28,06,28,5.90
2014,11,28,06,29,5.90
2014,11,28,06,30,5.90
2014,11,28,06,31,5.90
2014,11,28,06,32,5.90
2014,11,28,06,33,5.90
2014,11,28,06,34,5.90
2014,11,28,06,35,5.90
2014,11,28,06,36,5.90
2014,11,28,06,37,5.90
2014,11,28,06,38,6.00
2014,11,28,06,39,6.00
2014,11,28,06,40,6.00
2014,11,28,06,41,6.00
2014,11,28,06,42,6.00
2014,11,28,06,43,6.10
2014,11,28,06,44,6.10
2014,11,28,06,45,6.10
2014,11,28,06,46,6.10
2014,11,28,06,47,6.10
2014,11,28,06,48,6.10
2014,11,28,06,49,6.10
2014,11,28,06,50,6.10
2014,11,28,06,51,6.10
2014,11,28,06,52,6.10
2014,11,28,06,53,6.10
2014,11,28,06,54,6.10
2014,11,28,06,55,6.10
2014,11,28,06,56,6.10
2014,11,28,06,57,6.10
2014,11,28,06,58,6.10
2014,11,28,06,59,6.10
2014,11,28,07,00,6.10
2014,11,28,07,01,6.10
2014,11,28,07,02,6.10
2014,11,28,07,03,6.10
2014,11,28,07,04,6.10
2014,11,28,07,05,6.10
2014,11,28,07,06,6.10
2014,11,28,07,07,6.10
2014,11,28,07,08,6.10
2014,11,28,07,09,6.10
2014,11,28,07,10,6.10
2014,11,28,07,11,6.10
2014,11,28,07,12,6.10
2014,11,28,07,13,6.10
2014,11,28,07,14,6.10
2014,11,28,07,15,6.10
2014,11,28,07,16,6.10
2014,11,28,07,17,6.10
2014,11,28,07,18,6.10
2014,11,28,07,19,6.10
2014,11,28,07,20,6.10
2014,11,28,07,21,6.10
2014,11,28,07,22,6.10
2014,11,28,07,23,6.10
2014,11,28,07,24,6.20
2014,11,28,07,25,6.20
2014,11,28,07,26,6.20
2014,11,28,07,27,6.20
2014,11,28,07,28,6.20
2014,11,28,07,29,6.20
2014,11,28,07,30,6.20
2014,11,28,07,31,6.20
2014,11,28,07,32,6.20
2014,11,28,07,33,6.20
2014,11,28,07,34,6.20
2014,11,28,07,35,6.20
2014,11,28,07,36,6.20
2014,11,28,07,37,6.20
2014,11,28,07,38,6.20
2014,11,28,07,39,6.20
2014,11,28,07,40,6.20
2014,11,28,07,41,6.20
2014,11,28,07,42,6.20
2014,11,28,07,43,6.20
2014,11,28,07,44,6.20
2014,11,28,07,45,6.20
2014,11,28,07,46,6.20
2014,11,28,07,47,6.20
2014,11,28,07,48,6.20
2014,11,28,07,49,6.20
2014,11,28,07,50,6.20
2014,11,28,07,51,6.20
2014,11,28,07,52,6.20
2014,11,28,07,53,6.20
2014,11,28,07,54,6.20
2014,11,28,07,55,6.20
2014,11,28,07,56,6.10
2014,11,28,07,57,6.10
2014,11,28,07,58,6.10
2014,11,28,07,59,6.10
2014,11,28,08,00,6.00
2014,11,28,08,01,6.00
2014,11,28,08,02,6.00
2014,11,28,08,03,5.90
2014,11,28,08,04,5.90
2014,11,28,08,05,5.90
2014,11,28,08,06,5.90
2014,11,28,08,07,5.90
2014,11,28,08,08,5.90
2014,11,28,08,09,5.90
2014,11,28,08,10,5.90
2014,11,28,08,11,5.90
2014,11,28,08,12,5.90
2014,11,28,08,13,5.90
2014,11,28,08,14,5.80
2014,11,28,08,15,5.80
2014,11,28,08,16,5.80
2014,11,28,08,17,5.80
2014,11,28,08,18,5.80
2014,11,28,08,19,5.80
2014,11,28,08,20,5.80
2014,11,28,08,21,5.80
2014,11,28,08,22,5.80
2014,11,28,08,23,5.80
2014,11,28,08,24,5.70
2014,11,28,08,25,5.70
2014,11,28,08,26,5.70
2014,11,28,08,27,5.70
2014,11,28,08,28,5.70
2014,11,28,08,29,5.60
2014,11,28,08,30,5.60
2014,11,28,08,31,5.60
2014,11,28,08,32,5.60
2014,11,28,08,33,5.60
2014,11,28,08,34,5.60
2014,11,28,08,35,5.60
2014,11,28,08,36,5.60
2014,11,28,08,37,5.60
2014,11,28,08,38,5.60
2014,11,28,08,39,5.60
2014,11,28,08,40,5.60
2014,11,28,08,41,5.60
2014,11,28,08,42,5.50
2014,11,28,08,43,5.50
2014,11,28,08,44,5.50
2014,11,28,08,45,5.50
2014,11,28,08,46,5.50
2014,11,28,08,47,5.50
2014,11,28,08,48,5.50
2014,11,28,08,49,5.50
2014,11,28,08,50,5.40
2014,11,28,08,51,5.40
2014,11,28,08,52,5.40
2014,11,28,08,53,5.40
2014,11,28,08,54,5.40
2014,11,28,08,55,5.40
2014,11,28,08,56,5.40
2014,11,28,08,57,5.40
2014,11,28,08,58,5.40
2014,11,28,08,59,5.40
2014,11,28,09,00,5.40
2014,11,28,09,01,5.40
2014,11,28,09,02,5.40
2014,11,28,09,03,5.40
2014,11,28,09,04,5.40
2014,11,28,09,05,5.40
2014,11,28,09,06,5.40
2014,11,28,09,07,5.40
2014,11,28,09,08,5.40
2014,11,28,09,09,5.40
2014,11,28,09,10,5.40
2014,11,28,09,11,5.40
2014,11,28,09,12,5.40
2014,11,28,09,13,5.40
2014,11,28,09,14,5.40
2014,11,28,09,15,5.30
2014,11,28,09,16,5.30
2014,11,28,09,17,5.30
2014,11,28,09,18,5.30
2014,11,28,09,19,5.30
2014,11,28,09,20,5.30
2014,11,28,09,21,5.30
2014,11,28,09,22,5.30
2014,11,28,09,23,5.30
2014,11,28,09,24,5.30
2014,11,28,09,25,5.30
2014,11,28,09,26,5.30
2014,11,28,09,27,5.20
2014,11,28,09,28,5.20
2014,11,28,09,29,5.20
2014,11,28,09,30,5.20
2014,11,28,09,31,5.20
2014,11,28,09,32,5.10
2014,11,28,09,33,5.10
2014,11,28,09,34,5.10
2014,11,28,09,35,5.10
2014,11,28,09,36,5.10
2014,11,28,09,37,5.00
2014,11,28,09,38,5.00
2014,11,28,09,39,5.00
2014,11,28,09,40,5.00
2014,11,28,09,41,4.90
2014,11,28,09,42,4.90
2014,11,28,09,43,4.90
2014,11,28,09,44,4.90
2014,11,28,09,45,4.90
2014,11,28,09,46,4.90
2014,11,28,09,47,4.90
2014,11,28,09,48,4.90
2014,11,28,09,49,4.90
2014,11,28,09,50,4.90
2014,11,28,09,51,4.90
2014,11,28,09,52,4.90
2014,11,28,09,53,4.90
2014,11,28,09,54,4.90
2014,11,28,09,55,4.80
2014,11,28,09,56,4.80
2014,11,28,09,57,4.80
2014,11,28,09,58,4.80
2014,11,28,09,59,4.80
2014,11,28,10,00,4.80
2014,11,28,10,01,4.80
2014,11,28,10,02,4.80
2014,11,28,10,03,4.80
2014,11,28,10,04,4.80
2014,11,28,10,05,4.80
2014,11,28,10,06,4.80
2014,11,28,10,07,4.80
2014,11,28,10,08,4.80
2014,11,28,10,09,4.80
2014,11,28,10,10,4.70
2014,11,28,10,11,4.70
2014,11,28,10,12,4.70
2014,11,28,10,13,4.70
2014,11,28,10,14,4.70
2014,11,28,10,15,4.70
2014,11,28,10,16,4.70
2014,11,28,10,17,4.70
2014,11,28,10,18,4.70
2014,11,28,10,19,4.70
2014,11,28,10,20,4.60
2014,11,28,10,21,4.60
2014,11,28,10,22,4.60
2014,11,28,10,23,4.60
2014,11,28,10,24,4.60
2014,11,28,10,25,4.60
2014,11,28,10,26,4.60
2014,11,28,10,27,4.60
2014,11,28,10,28,4.60
2014,11,28,10,29,4.60
2014,11,28,10,30,4.50
2014,11,28,10,31,4.50
2014,11,28,10,32,4.50
2014,11,28,10,33,4.50
2014,11,28,10,34,4.50
2014,11,28,10,35,4.50
2014,11,28,10,36,4.50
2014,11,28,10,37,4.50
2014,11,28,10,38,4.50
2014,11,28,10,39,4.50
2014,11,28,10,40,4.50
2014,11,28,10,41,4.40
2014,11,28,10,42,4.40
2014,11,28,10,43,4.40
2014,11,28,10,44,4.40
2014,11,28,10,45,4.40
2014,11,28,10,46,4.40
2014,11,28,10,47,4.40
2014,11,28,10,48,4.40
2014,11,28,10,49,4.40
2014,11,28,10,50,4.40
2014,11,28,10,51,4.50
2014,11,28,10,52,4.50
2014,11,28,10,53,4.40
2014,11,28,10,54,4.50
2014,11,28,10,55,4.50
2014,11,28,10,56,4.50
2014,11,28,10,57,4.50
2014,11,28,10,58,4.50
2014,11,28,10,59,4.60
2014,11,28,11,00,4.60
2014,11,28,11,01,4.60
2014,11,28,11,02,4.60
2014,11,28,11,03,4.60
2014,11,28,11,04,4.60
2014,11,28,11,05,4.60
2014,11,28,11,06,4.70
2014,11,28,11,07,4.70
2014,11,28,11,08,4.70
2014,11,28,11,09,4.70
2014,11,28,11,10,4.70
2014,11,28,11,11,4.70
2014,11,28,11,12,4.70
2014,11,28,11,13,4.70
2014,11,28,11,14,4.70
2014,11,28,11,15,4.70
2014,11,28,11,16,4.70
2014,11,28,11,17,4.70
2014,11,28,11,18,4.70
2014,11,28,11,19,4.70
2014,11,28,11,20,4.70
2014,11,28,11,21,4.70
2014,11,28,11,22,4.80
2014,11,28,11,23,4.80
2014,11,28,11,24,4.80
2014,11,28,11,25,4.80
2014,11,28,11,26,4.80
2014,11,28,11,27,4.90
2014,11,28,11,28,4.90
2014,11,28,11,29,4.90
2014,11,28,11,30,4.90
2014,11,28,11,31,5.00
2014,11,28,11,32,5.00
2014,11,28,11,33,5.10
2014,11,28,11,34,5.10
2014,11,28,11,35,5.10
2014,11,28,11,36,5.20
2014,11,28,11,37,5.20
2014,11,28,11,38,5.10
2014,11,28,11,39,5.10
2014,11,28,11,40,5.10
2014,11,28,11,41,5.10
2014,11,28,11,42,5.10
2014,11,28,11,43,5.10
2014,11,28,11,44,5.10
2014,11,28,11,45,5.10
2014,11,28,11,46,5.10
2014,11,28,11,47,5.10
2014,11,28,11,48,5.10
2014,11,28,11,49,5.10
2014,11,28,11,50,5.10
2014,11,28,11,51,5.10
2014,11,28,11,52,5.20
2014,11,28,11,53,5.20
2014,11,28,11,54,5.20
2014,11,28,11,55,5.20
2014,11,28,11,56,5.20
2014,11,28,11,57,5.20
2014,11,28,11,58,5.20
2014,11,28,11,59,5.30
2014,11,28,12,00,5.20
2014,11,28,12,01,5.20
2014,11,28,12,02,5.20
2014,11,28,12,03,5.20
2014,11,28,12,04,5.20
2014,11,28,12,05,5.20
2014,11,28,12,06,5.20
2014,11,28,12,07,5.20
2014,11,28,12,08,5.20
2014,11,28,12,09,5.20
2014,11,28,12,10,5.20
2014,11,28,12,11,5.20
2014,11,28,12,12,5.20
2014,11,28,12,13,5.20
2014,11,28,12,14,5.20
2014,11,28,12,15,5.20
2014,11,28,12,16,5.20
2014,11,28,12,17,5.30
2014,11,28,12,18,5.30
2014,11,28,12,19,5.30
2014,11,28,12,20,5.30
2014,11,28,12,21,5.30
2014,11,28,12,22,5.30
2014,11,28,12,23,5.30
2014,11,28,12,24,5.30
2014,11,28,12,25,5.40
2014,11,28,12,26,5.40
2014,11,28,12,27,5.40
2014,11,28,12,28,5.40
2014,11,28,12,29,5.40
2014,11,28,12,30,5.40
2014,11,28,12,31,5.40
2014,11,28,12,32,5.50
2014,11,28,12,33,5.50
2014,11,28,12,34,5.50
2014,11,28,12,35,5.50
2014,11,28,12,36,5.50
2014,11,28,12,37,5.50
2014,11,28,12,38,5.50
2014,11,28,12,39,5.40
2014,11,28,12,40,5.40
2014,11,28,12,41,5.40
2014,11,28,12,42,5.40
2014,11,28,12,43,5.40
2014,11,28,12,44,5.40
2014,11,28,12,45,5.40
2014,11,28,12,46,5.40
2014,11,28,12,47,5.50
2014,11,28,12,48,5.50
2014,11,28,12,49,5.50
2014,11,28,12,50,5.50
2014,11,28,12,51,5.50
2014,11,28,12,52,5.50
2014,11,28,12,53,5.60
2014,11,28,12,54,5.60
2014,11,28,12,55,5.60
2014,11,28,12,56,5.60
2014,11,28,12,57,5.60
2014,11,28,12,58,5.60
2014,11,28,12,59,5.60
2014,11,28,13,00,5.60
2014,11,28,13,01,5.60
2014,11,28,13,02,5.60
2014,11,28,13,03,5.60
2014,11,28,13,04,5.60
2014,11,28,13,05,5.60
2014,11,28,13,06,5.50
2014,11,28,13,07,5.50
2014,11,28,13,08,5.50
2014,11,28,13,09,5.50
2014,11,28,13,10,5.50
2014,11,28,13,11,5.50
2014,11,28,13,12,5.50
2014,11,28,13,13,5.50
2014,11,28,13,14,5.50
2014,11,28,13,15,5.60
2014,11,28,13,16,5.60
2014,11,28,13,17,5.60
2014,11,28,13,18,5.60
2014,11,28,13,19,5.60
2014,11,28,13,20,5.60
2014,11,28,13,21,5.60
2014,11,28,13,22,5.60
2014,11,28,13,23,5.60
2014,11,28,13,24,5.60
2014,11,28,13,25,5.60
2014,11,28,13,26,5.60
2014,11,28,13,27,5.60
2014,11,28,13,28,5.70
2014,11,28,13,29,5.70
2014,11,28,13,30,5.70
2014,11,28,13,31,5.70
2014,11,28,13,32,5.70
2014,11,28,13,33,5.70
2014,11,28,13,34,5.80
2014,11,28,13,35,5.80
2014,11,28,13,36,5.80
2014,11,28,13,37,5.80
2014,11,28,13,38,5.80
2014,11,28,13,39,5.80
2014,11,28,13,40,5.90
2014,11,28,13,41,5.90
2014,11,28,13,42,5.90
2014,11,28,13,43,5.80
2014,11,28,13,44,5.80
2014,11,28,13,45,5.80
2014,11,28,13,46,5.80
2014,11,28,13,47,5.80
2014,11,28,13,48,5.80
2014,11,28,13,49,5.80
2014,11,28,13,50,5.80
2014,11,28,13,51,5.80
2014,11,28,13,52,5.80
2014,11,28,13,53,5.90
2014,11,28,13,54,5.90
2014,11,28,13,55,5.90
2014,11,28,13,56,5.90
2014,11,28,13,57,5.90
2014,11,28,13,58,5.90
2014,11,28,13,59,5.90
2014,11,28,14,00,5.90
2014,11,28,14,01,5.90
2014,11,28,14,02,5.90
2014,11,28,14,03,5.80
2014,11,28,14,04,5.80
2014,11,28,14,05,5.80
2014,11,28,14,06,5.80
2014,11,28,14,07,5.80
2014,11,28,14,08,5.80
2014,11,28,14,09,5.80
2014,11,28,14,10,5.70
2014,11,28,14,11,5.70
2014,11,28,14,12,5.70
2014,11,28,14,13,5.70
2014,11,28,14,14,5.70
2014,11,28,14,15,5.70
2014,11,28,14,16,5.70
2014,11,28,14,17,5.60
2014,11,28,14,18,5.60
2014,11,28,14,19,5.50
2014,11,28,14,20,5.50
2014,11,28,14,21,5.50
2014,11,28,14,22,5.40
2014,11,28,14,23,5.30
2014,11,28,14,24,5.30
2014,11,28,14,25,5.20
2014,11,28,14,26,5.20
2014,11,28,14,27,5.10
2014,11,28,14,28,5.00
2014,11,28,14,29,5.00
2014,11,28,14,30,4.90
2014,11,28,14,31,4.90
2014,11,28,14,32,4.80
2014,11,28,14,33,4.80
2014,11,28,14,34,4.80
2014,11,28,14,35,4.70
2014,11,28,14,36,4.70
2014,11,28,14,37,4.70
2014,11,28,14,38,4.70
2014,11,28,14,39,4.70
2014,11,28,14,40,4.60
2014,11,28,14,41,4.60
2014,11,28,14,42,4.60
2014,11,28,14,43,4.60
2014,11,28,14,44,4.60
2014,11,28,14,45,4.60
2014,11,28,14,46,4.50
2014,11,28,14,47,4.50
2014,11,28,14,48,4.50
2014,11,28,14,49,4.50
2014,11,28,14,50,4.40
2014,11,28,14,51,4.40
2014,11,28,14,52,4.40
2014,11,28,14,53,4.40
2014,11,28,14,54,4.40
2014,11,28,14,55,4.30
2014,11,28,14,56,4.30
2014,11,28,14,57,4.30
2014,11,28,14,58,4.30
2014,11,28,14,59,4.30
2014,11,28,15,00,4.20
2014,11,28,15,01,4.20
2014,11,28,15,02,4.20
2014,11,28,15,03,4.20
2014,11,28,15,04,4.20
2014,11,28,15,05,4.20
2014,11,28,15,06,4.20
2014,11,28,15,07,4.10
2014,11,28,15,08,4.10
2014,11,28,15,09,4.10
2014,11,28,15,10,4.10
2014,11,28,15,11,4.10
2014,11,28,15,12,4.10
2014,11,28,15,13,4.10
2014,11,28,15,14,4.10
2014,11,28,15,15,4.10
2014,11,28,15,16,4.10
2014,11,28,15,17,4.10
2014,11,28,15,18,4.10
2014,11,28,15,19,4.10
2014,11,28,15,20,4.20
2014,11,28,15,21,4.20
2014,11,28,15,22,4.20
2014,11,28,15,23,4.30
2014,11,28,15,24,4.30
2014,11,28,15,25,4.30
2014,11,28,15,26,4.30
2014,11,28,15,27,4.40
2014,11,28,15,28,4.40
2014,11,28,15,29,4.40
2014,11,28,15,30,4.40
2014,11,28,15,31,4.40
2014,11,28,15,32,4.40
2014,11,28,15,33,4.40
2014,11,28,15,34,4.40
2014,11,28,15,35,4.40
2014,11,28,15,36,4.40
2014,11,28,15,37,4.40
2014,11,28,15,38,4.50
2014,11,28,15,39,4.50
2014,11,28,15,40,4.50
2014,11,28,15,41,4.60
2014,11,28,15,42,4.60
2014,11,28,15,43,4.60
2014,11,28,15,44,4.70
2014,11,28,15,45,4.70
2014,11,28,15,46,4.70
2014,11,28,15,47,4.70
2014,11,28,15,48,4.80
2014,11,28,15,49,4.80
2014,11,28,15,50,4.80
2014,11,28,15,51,4.80
2014,11,28,15,52,4.90
2014,11,28,15,53,4.90
2014,11,28,15,54,4.90
2014,11,28,15,55,4.90
2014,11,28,15,56,4.90
2014,11,28,15,57,4.90
2014,11,28,15,58,4.90
2014,11,28,15,59,4.90
2014,11,28,16,00,4.80
2014,11,28,16,01,4.80
2014,11,28,16,02,4.80
2014,11,28,16,03,4.70
2014,11,28,16,04,4.70
2014,11,28,16,05,4.60
2014,11,28,16,06,4.50
2014,11,28,16,07,4.50
2014,11,28,16,08,4.40
2014,11,28,16,09,4.40
2014,11,28,16,10,4.30
2014,11,28,16,11,4.30
2014,11,28,16,12,4.20
2014,11,28,16,13,4.20
2014,11,28,16,14,4.20
2014,11,28,16,15,4.10
2014,11,28,16,16,4.10
2014,11,28,16,17,4.00
2014,11,28,16,18,4.00
2014,11,28,16,19,3.90
2014,11,28,16,20,3.90
2014,11,28,16,21,3.90
2014,11,28,16,22,3.80
2014,11,28,16,23,3.80
2014,11,28,16,24,3.80
2014,11,28,16,25,3.80
2014,11,28,16,26,3.80
2014,11,28,16,27,3.90
2014,11,28,16,28,3.90
2014,11,28,16,29,3.90
2014,11,28,16,30,3.90
2014,11,28,16,31,3.90
2014,11,28,16,32,3.90
2014,11,28,16,33,4.00
2014,11,28,16,34,4.00
2014,11,28,16,35,4.00
2014,11,28,16,36,3.90
2014,11,28,16,37,3.90
2014,11,28,16,38,3.90
2014,11,28,16,39,3.90
2014,11,28,16,40,3.90
2014,11,28,16,41,3.80
2014,11,28,16,42,3.80
2014,11,28,16,43,3.80
2014,11,28,16,44,3.80
2014,11,28,16,45,3.70
2014,11,28,16,46,3.70
2014,11,28,16,47,3.70
2014,11,28,16,48,3.60
2014,11,28,16,49,3.70
2014,11,28,16,50,3.60
2014,11,28,16,51,3.60
2014,11,28,16,52,3.60
2014,11,28,16,53,3.60
2014,11,28,16,54,3.60
2014,11,28,16,55,3.60
2014,11,28,16,56,3.60
2014,11,28,16,57,3.60
2014,11,28,16,58,3.60
2014,11,28,16,59,3.60
2014,11,28,17,00,3.50
2014,11,28,17,01,3.50
2014,11,28,17,02,3.50
2014,11,28,17,03,3.40
2014,11,28,17,04,3.40
2014,11,28,17,05,3.40
2014,11,28,17,06,3.30
2014,11,28,17,07,3.30
2014,11,28,17,08,3.30
2014,11,28,17,09,3.30
2014,11,28,17,10,3.30
2014,11,28,17,11,3.30
2014,11,28,17,12,3.20
2014,11,28,17,13,3.20
2014,11,28,17,14,3.20
2014,11,28,17,15,3.20
2014,11,28,17,16,3.20
2014,11,28,17,17,3.20
2014,11,28,17,18,3.10
2014,11,28,17,19,3.10
2014,11,28,17,20,3.10
2014,11,28,17,21,3.10
2014,11,28,17,22,3.10
2014,11,28,17,23,3.10
2014,11,28,17,24,3.10
2014,11,28,17,25,3.10
2014,11,28,17,26,3.10
2014,11,28,17,27,3.10
2014,11,28,17,28,3.10
2014,11,28,17,29,3.10
2014,11,28,17,30,3.10
2014,11,28,17,31,3.00
2014,11,28,17,32,3.00
2014,11,28,17,33,3.00
2014,11,28,17,34,3.00
2014,11,28,17,35,3.00
2014,11,28,17,36,3.00
2014,11,28,17,37,3.00
2014,11,28,17,38,3.00
2014,11,28,17,39,3.00
2014,11,28,17,40,3.00
2014,11,28,17,41,2.90
2014,11,28,17,42,2.90
2014,11,28,17,43,2.90
2014,11,28,17,44,2.90
2014,11,28,17,45,2.90
2014,11,28,17,46,2.90
2014,11,28,17,47,2.90
2014,11,28,17,48,2.90
2014,11,28,17,49,3.00
2014,11,28,17,50,3.00
2014,11,28,17,51,3.00
2014,11,28,17,52,3.10
2014,11,28,17,53,3.10
2014,11,28,17,54,3.10
2014,11,28,17,55,3.10
2014,11,28,17,56,3.10
2014,11,28,17,57,3.10